Year,Month,Day,Hour,Minute,Value (Times are PST for windspeed in km/hr)
2015,08,14,00,00,3.40
2015,08,14,00,01,3.20
2015,08,14,00,02,3.20
2015,08,14,00,03,2.10
2015,08,14,00,04,0.10
2015,08,14,00,05,0.10
2015,08,14,00,06,0.10
2015,08,14,00,07,0.80
2015,08,14,00,08,2.70
2015,08,14,00,09,2.40
2015,08,14,00,10,1.50
2015,08,14,00,11,3.00
2015,08,14,00,12,2.70
2015,08,14,00,13,4.00
2015,08,14,00,14,1.80
2015,08,14,00,15,0.10
2015,08,14,00,16,0.00
2015,08,14,00,17,0.10
2015,08,14,00,18,1.10
2015,08,14,00,19,0.60
2015,08,14,00,20,0.10
2015,08,14,00,21,2.20
2015,08,14,00,22,1.40
2015,08,14,00,23,2.00
2015,08,14,00,24,0.10
2015,08,14,00,25,0.10
2015,08,14,00,26,0.00
2015,08,14,00,27,0.00
2015,08,14,00,28,0.00
2015,08,14,00,29,0.20
2015,08,14,00,30,0.00
2015,08,14,00,31,0.00
2015,08,14,00,32,0.10
2015,08,14,00,33,0.00
2015,08,14,00,34,0.00
2015,08,14,00,35,0.00
2015,08,14,00,36,0.00
2015,08,14,00,37,0.10
2015,08,14,00,38,0.10
2015,08,14,00,39,1.80
2015,08,14,00,40,1.90
2015,08,14,00,41,0.20
2015,08,14,00,42,1.60
2015,08,14,00,43,2.00
2015,08,14,00,44,0.60
2015,08,14,00,45,2.30
2015,08,14,00,46,2.20
2015,08,14,00,47,0.20
2015,08,14,00,48,1.00
2015,08,14,00,49,1.90
2015,08,14,00,50,2.80
2015,08,14,00,51,0.20
2015,08,14,00,52,0.00
2015,08,14,00,53,2.40
2015,08,14,00,54,3.10
2015,08,14,00,55,2.70
2015,08,14,00,56,3.30
2015,08,14,00,57,3.20
2015,08,14,00,58,3.70
2015,08,14,00,59,3.40
2015,08,14,01,00,3.60
2015,08,14,01,01,2.90
2015,08,14,01,02,0.60
2015,08,14,01,03,0.20
2015,08,14,01,04,0.00
2015,08,14,01,05,0.10
2015,08,14,01,06,0.10
2015,08,14,01,07,1.90
2015,08,14,01,08,0.20
2015,08,14,01,09,0.00
2015,08,14,01,10,0.00
2015,08,14,01,11,0.00
2015,08,14,01,12,0.00
2015,08,14,01,13,0.00
2015,08,14,01,14,0.10
2015,08,14,01,15,0.00
2015,08,14,01,16,0.00
2015,08,14,01,17,0.00
2015,08,14,01,18,0.00
2015,08,14,01,19,0.00
2015,08,14,01,20,0.00
2015,08,14,01,21,0.00
2015,08,14,01,22,0.00
2015,08,14,01,23,0.00
2015,08,14,01,24,0.00
2015,08,14,01,25,0.00
2015,08,14,01,26,0.00
2015,08,14,01,27,0.00
2015,08,14,01,28,0.10
2015,08,14,01,29,0.00
2015,08,14,01,30,0.10
2015,08,14,01,31,0.00
2015,08,14,01,32,0.10
2015,08,14,01,33,3.20
2015,08,14,01,34,2.60
2015,08,14,01,35,1.20
2015,08,14,01,36,0.00
2015,08,14,01,37,0.00
2015,08,14,01,38,0.00
2015,08,14,01,39,0.00
2015,08,14,01,40,0.00
2015,08,14,01,41,0.00
2015,08,14,01,42,0.00
2015,08,14,01,43,0.00
2015,08,14,01,44,0.00
2015,08,14,01,45,0.10
2015,08,14,01,46,0.00
2015,08,14,01,47,0.00
2015,08,14,01,48,0.10
2015,08,14,01,49,2.20
2015,08,14,01,50,4.70
2015,08,14,01,51,5.10
2015,08,14,01,52,6.20
2015,08,14,01,53,4.90
2015,08,14,01,54,4.00
2015,08,14,01,55,3.50
2015,08,14,01,56,3.00
2015,08,14,01,57,3.40
2015,08,14,01,58,3.00
2015,08,14,01,59,2.80
2015,08,14,02,00,2.50
2015,08,14,02,01,0.10
2015,08,14,02,02,0.10
2015,08,14,02,03,0.90
2015,08,14,02,04,0.20
2015,08,14,02,05,1.80
2015,08,14,02,06,0.90
2015,08,14,02,07,0.00
2015,08,14,02,08,0.00
2015,08,14,02,09,0.00
2015,08,14,02,10,0.60
2015,08,14,02,11,2.40
2015,08,14,02,12,1.90
2015,08,14,02,13,0.00
2015,08,14,02,14,0.00
2015,08,14,02,15,0.10
2015,08,14,02,16,0.00
2015,08,14,02,17,0.00
2015,08,14,02,18,0.00
2015,08,14,02,19,1.80
2015,08,14,02,20,3.80
2015,08,14,02,21,3.10
2015,08,14,02,22,3.70
2015,08,14,02,23,3.60
2015,08,14,02,24,4.80
2015,08,14,02,25,4.70
2015,08,14,02,26,8.20
2015,08,14,02,27,8.50
2015,08,14,02,28,10.90
2015,08,14,02,29,6.60
2015,08,14,02,30,7.20
2015,08,14,02,31,6.90
2015,08,14,02,32,4.80
2015,08,14,02,33,5.60
2015,08,14,02,34,4.60
2015,08,14,02,35,3.40
2015,08,14,02,36,0.50
2015,08,14,02,37,0.20
2015,08,14,02,38,1.10
2015,08,14,02,39,1.00
2015,08,14,02,40,0.30
2015,08,14,02,41,0.20
2015,08,14,02,42,0.50
2015,08,14,02,43,0.00
2015,08,14,02,44,0.10
2015,08,14,02,45,4.80
2015,08,14,02,46,4.90
2015,08,14,02,47,5.50
2015,08,14,02,48,6.20
2015,08,14,02,49,7.20
2015,08,14,02,50,6.20
2015,08,14,02,51,7.00
2015,08,14,02,52,8.20
2015,08,14,02,53,7.30
2015,08,14,02,54,8.90
2015,08,14,02,55,8.60
2015,08,14,02,56,9.50
2015,08,14,02,57,8.00
2015,08,14,02,58,7.10
2015,08,14,02,59,6.60
2015,08,14,03,00,6.00
2015,08,14,03,01,5.40
2015,08,14,03,02,6.80
2015,08,14,03,03,3.80
2015,08,14,03,04,4.40
2015,08,14,03,05,6.50
2015,08,14,03,06,4.90
2015,08,14,03,07,8.40
2015,08,14,03,08,11.60
2015,08,14,03,09,11.50
2015,08,14,03,10,16.00
2015,08,14,03,11,15.40
2015,08,14,03,12,13.10
2015,08,14,03,13,10.60
2015,08,14,03,14,7.10
2015,08,14,03,15,0.90
2015,08,14,03,16,2.70
2015,08,14,03,17,4.30
2015,08,14,03,18,1.10
2015,08,14,03,19,0.10
2015,08,14,03,20,0.10
2015,08,14,03,21,1.40
2015,08,14,03,22,4.10
2015,08,14,03,23,4.50
2015,08,14,03,24,3.60
2015,08,14,03,25,3.80
2015,08,14,03,26,2.30
2015,08,14,03,27,0.00
2015,08,14,03,28,0.10
2015,08,14,03,29,2.10
2015,08,14,03,30,3.30
2015,08,14,03,31,4.00
2015,08,14,03,32,3.10
2015,08,14,03,33,1.00
2015,08,14,03,34,0.00
2015,08,14,03,35,1.10
2015,08,14,03,36,3.60
2015,08,14,03,37,2.10
2015,08,14,03,38,0.10
2015,08,14,03,39,0.00
2015,08,14,03,40,0.30
2015,08,14,03,41,3.50
2015,08,14,03,42,10.80
2015,08,14,03,43,3.80
2015,08,14,03,44,3.50
2015,08,14,03,45,2.30
2015,08,14,03,46,3.50
2015,08,14,03,47,4.70
2015,08,14,03,48,6.10
2015,08,14,03,49,9.70
2015,08,14,03,50,10.10
2015,08,14,03,51,10.00
2015,08,14,03,52,8.80
2015,08,14,03,53,8.60
2015,08,14,03,54,8.40
2015,08,14,03,55,12.10
2015,08,14,03,56,11.70
2015,08,14,03,57,8.80
2015,08,14,03,58,10.40
2015,08,14,03,59,8.10
2015,08,14,04,00,6.40
2015,08,14,04,01,10.30
2015,08,14,04,02,7.20
2015,08,14,04,03,6.20
2015,08,14,04,04,3.70
2015,08,14,04,05,0.60
2015,08,14,04,06,0.10
2015,08,14,04,07,0.30
2015,08,14,04,08,3.50
2015,08,14,04,09,4.00
2015,08,14,04,10,2.10
2015,08,14,04,11,3.00
2015,08,14,04,12,6.40
2015,08,14,04,13,7.60
2015,08,14,04,14,7.70
2015,08,14,04,15,8.30
2015,08,14,04,16,8.80
2015,08,14,04,17,10.20
2015,08,14,04,18,8.40
2015,08,14,04,19,8.60
2015,08,14,04,20,9.80
2015,08,14,04,21,8.90
2015,08,14,04,22,8.50
2015,08,14,04,23,8.80
2015,08,14,04,24,10.60
2015,08,14,04,25,9.00
2015,08,14,04,26,7.30
2015,08,14,04,27,7.60
2015,08,14,04,28,5.70
2015,08,14,04,29,4.30
2015,08,14,04,30,1.30
2015,08,14,04,31,0.20
2015,08,14,04,32,0.00
2015,08,14,04,33,0.00
2015,08,14,04,34,0.00
2015,08,14,04,35,1.10
2015,08,14,04,36,3.10
2015,08,14,04,37,2.90
2015,08,14,04,38,4.30
2015,08,14,04,39,3.80
2015,08,14,04,40,5.80
2015,08,14,04,41,6.70
2015,08,14,04,42,7.90
2015,08,14,04,43,6.80
2015,08,14,04,44,6.30
2015,08,14,04,45,5.80
2015,08,14,04,46,5.20
2015,08,14,04,47,7.80
2015,08,14,04,48,3.00
2015,08,14,04,49,2.10
2015,08,14,04,50,4.40
2015,08,14,04,51,3.00
2015,08,14,04,52,4.40
2015,08,14,04,53,4.10
2015,08,14,04,54,3.80
2015,08,14,04,55,3.50
2015,08,14,04,56,1.50
2015,08,14,04,57,5.50
2015,08,14,04,58,8.90
2015,08,14,04,59,10.50
2015,08,14,05,00,16.50
2015,08,14,05,01,20.20
2015,08,14,05,02,19.20
2015,08,14,05,03,17.20
2015,08,14,05,04,15.00
2015,08,14,05,05,13.60
2015,08,14,05,06,8.80
2015,08,14,05,07,5.50
2015,08,14,05,08,3.50
2015,08,14,05,09,1.80
2015,08,14,05,10,5.80
2015,08,14,05,11,5.40
2015,08,14,05,12,4.50
2015,08,14,05,13,3.70
2015,08,14,05,14,2.60
2015,08,14,05,15,4.60
2015,08,14,05,16,5.20
2015,08,14,05,17,4.70
2015,08,14,05,18,5.10
2015,08,14,05,19,5.90
2015,08,14,05,20,7.60
2015,08,14,05,21,9.40
2015,08,14,05,22,10.90
2015,08,14,05,23,9.50
2015,08,14,05,24,5.90
2015,08,14,05,25,5.60
2015,08,14,05,26,5.70
2015,08,14,05,27,4.30
2015,08,14,05,28,5.80
2015,08,14,05,29,2.90
2015,08,14,05,30,6.00
2015,08,14,05,31,3.10
2015,08,14,05,32,5.40
2015,08,14,05,33,7.90
2015,08,14,05,34,7.60
2015,08,14,05,35,10.60
2015,08,14,05,36,12.30
2015,08,14,05,37,8.50
2015,08,14,05,38,1.90
2015,08,14,05,39,0.10
2015,08,14,05,40,0.00
2015,08,14,05,41,2.20
2015,08,14,05,42,4.30
2015,08,14,05,43,5.60
2015,08,14,05,44,7.10
2015,08,14,05,45,6.00
2015,08,14,05,46,1.40
2015,08,14,05,47,0.20
2015,08,14,05,48,2.50
2015,08,14,05,49,5.20
2015,08,14,05,50,8.60
2015,08,14,05,51,12.30
2015,08,14,05,52,13.50
2015,08,14,05,53,19.40
2015,08,14,05,54,8.00
2015,08,14,05,55,5.20
2015,08,14,05,56,7.70
2015,08,14,05,57,8.40
2015,08,14,05,58,7.10
2015,08,14,05,59,5.80
2015,08,14,06,00,5.90
2015,08,14,06,01,8.70
2015,08,14,06,02,6.50
2015,08,14,06,03,7.40
2015,08,14,06,04,4.70
2015,08,14,06,05,4.70
2015,08,14,06,06,8.10
2015,08,14,06,07,11.00
2015,08,14,06,08,12.10
2015,08,14,06,09,15.30
2015,08,14,06,10,14.50
2015,08,14,06,11,11.80
2015,08,14,06,12,13.50
2015,08,14,06,13,19.10
2015,08,14,06,14,17.70
2015,08,14,06,15,23.00
2015,08,14,06,16,15.00
2015,08,14,06,17,12.40
2015,08,14,06,18,14.50
2015,08,14,06,19,9.30
2015,08,14,06,20,10.90
2015,08,14,06,21,6.10
2015,08,14,06,22,8.60
2015,08,14,06,23,8.40
2015,08,14,06,24,6.00
2015,08,14,06,25,11.70
2015,08,14,06,26,14.00
2015,08,14,06,27,8.30
2015,08,14,06,28,4.00
2015,08,14,06,29,8.00
2015,08,14,06,30,4.70
2015,08,14,06,31,7.10
2015,08,14,06,32,4.90
2015,08,14,06,33,5.90
2015,08,14,06,34,4.50
2015,08,14,06,35,4.80
2015,08,14,06,36,8.10
2015,08,14,06,37,5.20
2015,08,14,06,38,6.40
2015,08,14,06,39,4.60
2015,08,14,06,40,3.10
2015,08,14,06,41,1.80
2015,08,14,06,42,3.90
2015,08,14,06,43,4.10
2015,08,14,06,44,4.30
2015,08,14,06,45,4.80
2015,08,14,06,46,2.00
2015,08,14,06,47,4.10
2015,08,14,06,48,8.10
2015,08,14,06,49,6.10
2015,08,14,06,50,7.50
2015,08,14,06,51,11.60
2015,08,14,06,52,10.80
2015,08,14,06,53,6.30
2015,08,14,06,54,8.50
2015,08,14,06,55,6.90
2015,08,14,06,56,7.10
2015,08,14,06,57,7.60
2015,08,14,06,58,7.50
2015,08,14,06,59,6.40
2015,08,14,07,00,8.10
2015,08,14,07,01,10.30
2015,08,14,07,02,8.20
2015,08,14,07,03,5.50
2015,08,14,07,04,0.80
2015,08,14,07,05,3.10
2015,08,14,07,06,0.90
2015,08,14,07,07,3.20
2015,08,14,07,08,6.10
2015,08,14,07,09,6.70
2015,08,14,07,10,3.60
2015,08,14,07,11,4.40
2015,08,14,07,12,5.30
2015,08,14,07,13,3.90
2015,08,14,07,14,3.40
2015,08,14,07,15,1.50
2015,08,14,07,16,1.10
2015,08,14,07,17,1.40
2015,08,14,07,18,6.00
2015,08,14,07,19,9.40
2015,08,14,07,20,8.70
2015,08,14,07,21,9.30
2015,08,14,07,22,7.10
2015,08,14,07,23,8.10
2015,08,14,07,24,6.40
2015,08,14,07,25,3.50
2015,08,14,07,26,3.10
2015,08,14,07,27,4.00
2015,08,14,07,28,2.20
2015,08,14,07,29,3.00
2015,08,14,07,30,0.20
2015,08,14,07,31,0.00
2015,08,14,07,32,0.20
2015,08,14,07,33,2.40
2015,08,14,07,34,1.00
2015,08,14,07,35,1.80
2015,08,14,07,36,0.10
2015,08,14,07,37,3.70
2015,08,14,07,38,4.00
2015,08,14,07,39,2.70
2015,08,14,07,40,1.80
2015,08,14,07,41,1.90
2015,08,14,07,42,0.00
2015,08,14,07,43,0.00
2015,08,14,07,44,0.00
2015,08,14,07,45,0.90
2015,08,14,07,46,1.80
2015,08,14,07,47,4.50
2015,08,14,07,48,0.40
2015,08,14,07,49,4.70
2015,08,14,07,50,1.20
2015,08,14,07,51,2.60
2015,08,14,07,52,3.00
2015,08,14,07,53,1.80
2015,08,14,07,54,0.10
2015,08,14,07,55,0.20
2015,08,14,07,56,0.90
2015,08,14,07,57,1.20
2015,08,14,07,58,0.10
2015,08,14,07,59,2.70
2015,08,14,08,00,2.00
2015,08,14,08,01,1.00
2015,08,14,08,02,0.60
2015,08,14,08,03,6.70
2015,08,14,08,04,5.50
2015,08,14,08,05,11.50
2015,08,14,08,06,7.80
2015,08,14,08,07,7.30
2015,08,14,08,08,5.00
2015,08,14,08,09,6.10
2015,08,14,08,10,6.90
2015,08,14,08,11,6.90
2015,08,14,08,12,5.70
2015,08,14,08,13,1.40
2015,08,14,08,14,1.80
2015,08,14,08,15,0.20
2015,08,14,08,16,1.20
2015,08,14,08,17,0.50
2015,08,14,08,18,0.10
2015,08,14,08,19,0.00
2015,08,14,08,20,1.60
2015,08,14,08,21,1.90
2015,08,14,08,22,1.80
2015,08,14,08,23,0.30
2015,08,14,08,24,0.70
2015,08,14,08,25,0.80
2015,08,14,08,26,2.50
2015,08,14,08,27,2.50
2015,08,14,08,28,1.80
2015,08,14,08,29,5.90
2015,08,14,08,30,3.20
2015,08,14,08,31,0.20
2015,08,14,08,32,0.10
2015,08,14,08,33,0.10
2015,08,14,08,34,0.30
2015,08,14,08,35,0.00
2015,08,14,08,36,0.00
2015,08,14,08,37,0.80
2015,08,14,08,38,2.20
2015,08,14,08,39,3.40
2015,08,14,08,40,2.70
2015,08,14,08,41,0.20
2015,08,14,08,42,0.10
2015,08,14,08,43,3.10
2015,08,14,08,44,4.30
2015,08,14,08,45,3.90
2015,08,14,08,46,4.50
2015,08,14,08,47,3.10
2015,08,14,08,48,0.20
2015,08,14,08,49,1.30
2015,08,14,08,50,2.00
2015,08,14,08,51,4.30
2015,08,14,08,52,4.10
2015,08,14,08,53,4.20
2015,08,14,08,54,4.70
2015,08,14,08,55,4.00
2015,08,14,08,56,4.80
2015,08,14,08,57,4.10
2015,08,14,08,58,3.40
2015,08,14,08,59,2.10
2015,08,14,09,00,3.30
2015,08,14,09,01,3.10
2015,08,14,09,02,4.60
2015,08,14,09,03,7.90
2015,08,14,09,04,10.40
2015,08,14,09,05,10.50
2015,08,14,09,06,10.50
2015,08,14,09,07,11.60
2015,08,14,09,08,13.70
2015,08,14,09,09,8.80
2015,08,14,09,10,8.80
2015,08,14,09,11,6.10
2015,08,14,09,12,6.30
2015,08,14,09,13,7.70
2015,08,14,09,14,10.50
2015,08,14,09,15,13.10
2015,08,14,09,16,12.50
2015,08,14,09,17,10.20
2015,08,14,09,18,7.30
2015,08,14,09,19,8.60
2015,08,14,09,20,8.90
2015,08,14,09,21,10.50
2015,08,14,09,22,5.80
2015,08,14,09,23,7.70
2015,08,14,09,24,6.10
2015,08,14,09,25,6.90
2015,08,14,09,26,5.80
2015,08,14,09,27,5.60
2015,08,14,09,28,10.00
2015,08,14,09,29,11.30
2015,08,14,09,30,10.50
2015,08,14,09,31,6.40
2015,08,14,09,32,3.40
2015,08,14,09,33,5.40
2015,08,14,09,34,8.40
2015,08,14,09,35,6.00
2015,08,14,09,36,4.70
2015,08,14,09,37,7.20
2015,08,14,09,38,5.40
2015,08,14,09,39,7.20
2015,08,14,09,40,6.40
2015,08,14,09,41,8.00
2015,08,14,09,42,6.80
2015,08,14,09,43,1.90
2015,08,14,09,44,3.10
2015,08,14,09,45,4.50
2015,08,14,09,46,1.70
2015,08,14,09,47,1.80
2015,08,14,09,48,1.10
2015,08,14,09,49,3.00
2015,08,14,09,50,5.20
2015,08,14,09,51,6.20
2015,08,14,09,52,5.40
2015,08,14,09,53,6.60
2015,08,14,09,54,4.50
2015,08,14,09,55,4.70
2015,08,14,09,56,3.70
2015,08,14,09,57,5.30
2015,08,14,09,58,3.60
2015,08,14,09,59,5.70
2015,08,14,10,00,5.10
2015,08,14,10,01,3.80
2015,08,14,10,02,6.00
2015,08,14,10,03,4.70
2015,08,14,10,04,5.60
2015,08,14,10,05,5.00
2015,08,14,10,06,4.30
2015,08,14,10,07,5.80
2015,08,14,10,08,4.50
2015,08,14,10,09,1.70
2015,08,14,10,10,1.70
2015,08,14,10,11,3.80
2015,08,14,10,12,3.90
2015,08,14,10,13,5.20
2015,08,14,10,14,4.20
2015,08,14,10,15,1.30
2015,08,14,10,16,3.90
2015,08,14,10,17,1.10
2015,08,14,10,18,1.60
2015,08,14,10,19,3.10
2015,08,14,10,20,3.70
2015,08,14,10,21,3.90
2015,08,14,10,22,4.30
2015,08,14,10,23,1.30
2015,08,14,10,24,2.60
2015,08,14,10,25,1.00
2015,08,14,10,26,0.10
2015,08,14,10,27,2.60
2015,08,14,10,28,1.90
2015,08,14,10,29,0.50
2015,08,14,10,30,0.10
2015,08,14,10,31,1.00
2015,08,14,10,32,1.30
2015,08,14,10,33,3.60
2015,08,14,10,34,2.30
2015,08,14,10,35,1.80
2015,08,14,10,36,5.10
2015,08,14,10,37,5.00
2015,08,14,10,38,4.30
2015,08,14,10,39,3.10
2015,08,14,10,40,4.80
2015,08,14,10,41,5.50
2015,08,14,10,42,6.60
2015,08,14,10,43,2.70
2015,08,14,10,44,5.90
2015,08,14,10,45,1.80
2015,08,14,10,46,3.50
2015,08,14,10,47,8.30
2015,08,14,10,48,3.90
2015,08,14,10,49,4.10
2015,08,14,10,50,5.00
2015,08,14,10,51,4.90
2015,08,14,10,52,3.90
2015,08,14,10,53,1.60
2015,08,14,10,54,3.10
2015,08,14,10,55,5.80
2015,08,14,10,56,2.50
2015,08,14,10,57,4.10
2015,08,14,10,58,1.60
2015,08,14,10,59,0.00
2015,08,14,11,00,0.90
2015,08,14,11,01,2.70
2015,08,14,11,02,2.70
2015,08,14,11,03,4.90
2015,08,14,11,04,2.10
2015,08,14,11,05,2.40
2015,08,14,11,06,1.90
2015,08,14,11,07,0.00
2015,08,14,11,08,1.00
2015,08,14,11,09,2.00
2015,08,14,11,10,1.20
2015,08,14,11,11,6.90
2015,08,14,11,12,6.50
2015,08,14,11,13,5.80
2015,08,14,11,14,4.70
2015,08,14,11,15,4.20
2015,08,14,11,16,3.80
2015,08,14,11,17,3.50
2015,08,14,11,18,3.00
2015,08,14,11,19,0.50
2015,08,14,11,20,2.40
2015,08,14,11,21,1.70
2015,08,14,11,22,1.40
2015,08,14,11,23,4.30
2015,08,14,11,24,2.40
2015,08,14,11,25,5.00
2015,08,14,11,26,2.50
2015,08,14,11,27,4.80
2015,08,14,11,28,10.50
2015,08,14,11,29,6.10
2015,08,14,11,30,5.10
2015,08,14,11,31,6.80
2015,08,14,11,32,3.20
2015,08,14,11,33,5.70
2015,08,14,11,34,4.70
2015,08,14,11,35,5.90
2015,08,14,11,36,9.20
2015,08,14,11,37,5.80
2015,08,14,11,38,2.60
2015,08,14,11,39,4.10
2015,08,14,11,40,3.60
2015,08,14,11,41,1.70
2015,08,14,11,42,2.90
2015,08,14,11,43,5.70
2015,08,14,11,44,2.60
2015,08,14,11,45,2.50
2015,08,14,11,46,4.50
2015,08,14,11,47,2.30
2015,08,14,11,48,0.00
2015,08,14,11,49,1.00
2015,08,14,11,50,3.50
2015,08,14,11,51,5.40
2015,08,14,11,52,8.50
2015,08,14,11,53,8.90
2015,08,14,11,54,5.60
2015,08,14,11,55,9.10
2015,08,14,11,56,7.80
2015,08,14,11,57,8.00
2015,08,14,11,58,0.30
2015,08,14,11,59,0.20
2015,08,14,12,00,1.70
2015,08,14,12,01,2.60
2015,08,14,12,02,5.60
2015,08,14,12,03,6.30
2015,08,14,12,04,5.40
2015,08,14,12,05,6.90
2015,08,14,12,06,5.80
2015,08,14,12,07,6.40
2015,08,14,12,08,6.60
2015,08,14,12,09,6.70
2015,08,14,12,10,5.00
2015,08,14,12,11,5.00
2015,08,14,12,12,12.30
2015,08,14,12,13,6.80
2015,08,14,12,14,8.00
2015,08,14,12,15,15.10
2015,08,14,12,16,7.10
2015,08,14,12,17,8.90
2015,08,14,12,18,12.50
2015,08,14,12,19,10.50
2015,08,14,12,20,7.60
2015,08,14,12,21,13.90
2015,08,14,12,22,10.40
2015,08,14,12,23,6.50
2015,08,14,12,24,9.00
2015,08,14,12,25,10.40
2015,08,14,12,26,14.50
2015,08,14,12,27,7.50
2015,08,14,12,28,11.30
2015,08,14,12,29,8.90
2015,08,14,12,30,8.90
2015,08,14,12,31,9.40
2015,08,14,12,32,8.00
2015,08,14,12,33,7.50
2015,08,14,12,34,7.40
2015,08,14,12,35,8.70
2015,08,14,12,36,7.80
2015,08,14,12,37,6.40
2015,08,14,12,38,3.70
2015,08,14,12,39,4.80
2015,08,14,12,40,5.80
2015,08,14,12,41,5.50
2015,08,14,12,42,3.10
2015,08,14,12,43,7.00
2015,08,14,12,44,5.20
2015,08,14,12,45,7.10
2015,08,14,12,46,7.70
2015,08,14,12,47,8.90
2015,08,14,12,48,8.00
2015,08,14,12,49,8.80
2015,08,14,12,50,7.70
2015,08,14,12,51,11.60
2015,08,14,12,52,8.40
2015,08,14,12,53,4.40
2015,08,14,12,54,5.20
2015,08,14,12,55,8.40
2015,08,14,12,56,3.80
2015,08,14,12,57,6.90
2015,08,14,12,58,7.90
2015,08,14,12,59,11.70
2015,08,14,13,00,12.70
2015,08,14,13,01,9.30
2015,08,14,13,02,4.60
2015,08,14,13,03,8.80
2015,08,14,13,04,8.90
2015,08,14,13,05,6.40
2015,08,14,13,06,12.10
2015,08,14,13,07,11.70
2015,08,14,13,08,9.90
2015,08,14,13,09,10.30
2015,08,14,13,10,11.70
2015,08,14,13,11,10.50
2015,08,14,13,12,10.10
2015,08,14,13,13,8.80
2015,08,14,13,14,5.30
2015,08,14,13,15,9.70
2015,08,14,13,16,9.30
2015,08,14,13,17,9.30
2015,08,14,13,18,11.30
2015,08,14,13,19,10.10
2015,08,14,13,20,9.30
2015,08,14,13,21,15.90
2015,08,14,13,22,12.40
2015,08,14,13,23,12.70
2015,08,14,13,24,9.50
2015,08,14,13,25,7.60
2015,08,14,13,26,12.90
2015,08,14,13,27,9.40
2015,08,14,13,28,8.50
2015,08,14,13,29,9.10
2015,08,14,13,30,12.70
2015,08,14,13,31,7.60
2015,08,14,13,32,12.30
2015,08,14,13,33,14.80
2015,08,14,13,34,10.90
2015,08,14,13,35,12.00
2015,08,14,13,36,10.60
2015,08,14,13,37,13.30
2015,08,14,13,38,13.90
2015,08,14,13,39,9.10
2015,08,14,13,40,10.80
2015,08,14,13,41,9.70
2015,08,14,13,42,9.50
2015,08,14,13,43,8.60
2015,08,14,13,44,8.70
2015,08,14,13,45,11.30
2015,08,14,13,46,8.20
2015,08,14,13,47,5.20
2015,08,14,13,48,6.70
2015,08,14,13,49,3.20
2015,08,14,13,50,3.90
2015,08,14,13,51,7.20
2015,08,14,13,52,5.90
2015,08,14,13,53,8.30
2015,08,14,13,54,6.00
2015,08,14,13,55,3.40
2015,08,14,13,56,9.70
2015,08,14,13,57,9.00
2015,08,14,13,58,7.20
2015,08,14,13,59,9.90
2015,08,14,14,00,10.20
2015,08,14,14,01,12.90
2015,08,14,14,02,7.80
2015,08,14,14,03,9.30
2015,08,14,14,04,9.60
2015,08,14,14,05,10.80
2015,08,14,14,06,11.30
2015,08,14,14,07,7.30
2015,08,14,14,08,7.90
2015,08,14,14,09,7.90
2015,08,14,14,10,11.30
2015,08,14,14,11,11.80
2015,08,14,14,12,6.40
2015,08,14,14,13,4.60
2015,08,14,14,14,5.50
2015,08,14,14,15,10.80
2015,08,14,14,16,6.00
2015,08,14,14,17,12.20
2015,08,14,14,18,8.70
2015,08,14,14,19,7.20
2015,08,14,14,20,5.90
2015,08,14,14,21,11.10
2015,08,14,14,22,10.40
2015,08,14,14,23,11.90
2015,08,14,14,24,12.50
2015,08,14,14,25,11.30
2015,08,14,14,26,7.30
2015,08,14,14,27,7.20
2015,08,14,14,28,10.60
2015,08,14,14,29,6.40
2015,08,14,14,30,10.50
2015,08,14,14,31,7.20
2015,08,14,14,32,14.20
2015,08,14,14,33,7.10
2015,08,14,14,34,13.20
2015,08,14,14,35,7.10
2015,08,14,14,36,12.20
2015,08,14,14,37,9.00
2015,08,14,14,38,10.30
2015,08,14,14,39,15.00
2015,08,14,14,40,13.40
2015,08,14,14,41,8.50
2015,08,14,14,42,10.80
2015,08,14,14,43,10.10
2015,08,14,14,44,11.00
2015,08,14,14,45,12.00
2015,08,14,14,46,8.00
2015,08,14,14,47,10.50
2015,08,14,14,48,7.40
2015,08,14,14,49,6.80
2015,08,14,14,50,5.60
2015,08,14,14,51,12.00
2015,08,14,14,52,6.70
2015,08,14,14,53,8.70
2015,08,14,14,54,9.40
2015,08,14,14,55,10.30
2015,08,14,14,56,8.80
2015,08,14,14,57,9.90
2015,08,14,14,58,6.00
2015,08,14,14,59,10.40
2015,08,14,15,00,10.90
2015,08,14,15,01,8.90
2015,08,14,15,02,3.80
2015,08,14,15,03,6.00
2015,08,14,15,04,9.70
2015,08,14,15,05,12.40
2015,08,14,15,06,10.20
2015,08,14,15,07,9.10
2015,08,14,15,08,5.60
2015,08,14,15,09,5.80
2015,08,14,15,10,8.30
2015,08,14,15,11,8.70
2015,08,14,15,12,8.40
2015,08,14,15,13,13.00
2015,08,14,15,14,10.00
2015,08,14,15,15,13.60
2015,08,14,15,16,9.40
2015,08,14,15,17,11.90
2015,08,14,15,18,11.10
2015,08,14,15,19,11.80
2015,08,14,15,20,12.50
2015,08,14,15,21,10.00
2015,08,14,15,22,8.70
2015,08,14,15,23,10.60
2015,08,14,15,24,10.30
2015,08,14,15,25,8.00
2015,08,14,15,26,12.30
2015,08,14,15,27,13.60
2015,08,14,15,28,12.70
2015,08,14,15,29,8.00
2015,08,14,15,30,11.00
2015,08,14,15,31,14.40
2015,08,14,15,32,13.80
2015,08,14,15,33,11.10
2015,08,14,15,34,14.20
2015,08,14,15,35,15.80
2015,08,14,15,36,11.10
2015,08,14,15,37,17.30
2015,08,14,15,38,12.90
2015,08,14,15,39,11.50
2015,08,14,15,40,13.40
2015,08,14,15,41,10.70
2015,08,14,15,42,15.50
2015,08,14,15,43,13.30
2015,08,14,15,44,13.00
2015,08,14,15,45,12.50
2015,08,14,15,46,10.90
2015,08,14,15,47,12.90
2015,08,14,15,48,9.50
2015,08,14,15,49,10.00
2015,08,14,15,50,10.90
2015,08,14,15,51,11.10
2015,08,14,15,52,11.30
2015,08,14,15,53,8.50
2015,08,14,15,54,13.90
2015,08,14,15,55,7.20
2015,08,14,15,56,14.20
2015,08,14,15,57,9.70
2015,08,14,15,58,11.10
2015,08,14,15,59,10.60
2015,08,14,16,00,16.20
2015,08,14,16,01,11.20
2015,08,14,16,02,12.10
2015,08,14,16,03,10.90
2015,08,14,16,04,9.00
2015,08,14,16,05,11.70
2015,08,14,16,06,15.20
2015,08,14,16,07,8.00
2015,08,14,16,08,10.60
2015,08,14,16,09,8.80
2015,08,14,16,10,12.20
2015,08,14,16,11,15.10
2015,08,14,16,12,11.10
2015,08,14,16,13,8.30
2015,08,14,16,14,5.10
2015,08,14,16,15,8.90
2015,08,14,16,16,11.30
2015,08,14,16,17,10.20
2015,08,14,16,18,9.80
2015,08,14,16,19,10.60
2015,08,14,16,20,16.80
2015,08,14,16,21,9.50
2015,08,14,16,22,11.80
2015,08,14,16,23,14.30
2015,08,14,16,24,15.60
2015,08,14,16,25,5.50
2015,08,14,16,26,13.10
2015,08,14,16,27,13.40
2015,08,14,16,28,13.50
2015,08,14,16,29,14.90
2015,08,14,16,30,15.50
2015,08,14,16,31,19.10
2015,08,14,16,32,16.30
2015,08,14,16,33,12.10
2015,08,14,16,34,17.10
2015,08,14,16,35,11.20
2015,08,14,16,36,12.60
2015,08,14,16,37,9.60
2015,08,14,16,38,11.70
2015,08,14,16,39,16.90
2015,08,14,16,40,11.80
2015,08,14,16,41,10.10
2015,08,14,16,42,20.80
2015,08,14,16,43,12.00
2015,08,14,16,44,17.10
2015,08,14,16,45,15.70
2015,08,14,16,46,13.80
2015,08,14,16,47,9.00
2015,08,14,16,48,13.90
2015,08,14,16,49,20.00
2015,08,14,16,50,20.20
2015,08,14,16,51,12.40
2015,08,14,16,52,17.10
2015,08,14,16,53,14.60
2015,08,14,16,54,23.00
2015,08,14,16,55,20.20
2015,08,14,16,56,16.00
2015,08,14,16,57,9.70
2015,08,14,16,58,9.10
2015,08,14,16,59,15.60
2015,08,14,17,00,12.90
2015,08,14,17,01,16.90
2015,08,14,17,02,14.40
2015,08,14,17,03,18.50
2015,08,14,17,04,20.00
2015,08,14,17,05,19.90
2015,08,14,17,06,15.00
2015,08,14,17,07,15.60
2015,08,14,17,08,13.50
2015,08,14,17,09,7.60
2015,08,14,17,10,6.80
2015,08,14,17,11,11.10
2015,08,14,17,12,11.80
2015,08,14,17,13,5.90
2015,08,14,17,14,13.70
2015,08,14,17,15,10.30
2015,08,14,17,16,5.50
2015,08,14,17,17,8.80
2015,08,14,17,18,22.80
2015,08,14,17,19,15.60
2015,08,14,17,20,7.60
2015,08,14,17,21,14.90
2015,08,14,17,22,21.90
2015,08,14,17,23,18.00
2015,08,14,17,24,17.60
2015,08,14,17,25,18.50
2015,08,14,17,26,18.50
2015,08,14,17,27,12.60
2015,08,14,17,28,22.30
2015,08,14,17,29,19.20
2015,08,14,17,30,20.70
2015,08,14,17,31,20.70
2015,08,14,17,32,17.00
2015,08,14,17,33,23.30
2015,08,14,17,34,19.00
2015,08,14,17,35,23.20
2015,08,14,17,36,12.20
2015,08,14,17,37,8.80
2015,08,14,17,38,12.40
2015,08,14,17,39,16.10
2015,08,14,17,40,11.20
2015,08,14,17,41,15.40
2015,08,14,17,42,15.30
2015,08,14,17,43,11.40
2015,08,14,17,44,14.10
2015,08,14,17,45,20.60
2015,08,14,17,46,13.30
2015,08,14,17,47,7.60
2015,08,14,17,48,23.70
2015,08,14,17,49,22.60
2015,08,14,17,50,23.10
2015,08,14,17,51,19.10
2015,08,14,17,52,19.20
2015,08,14,17,53,11.60
2015,08,14,17,54,18.20